Wind_Speed
20 20 19 20 19 18 17 17 17 16 15 14 14 13 12 11 10 9 8 7 6 5 4 4 5 7 8 9 9 10 11 12 14 14 15 15 15 14 13 13 13 13 12 11 10 11 12 12 11 10 10 10 10 10 10 10 10 11 12 14 15 14 14 12 12 13 14 13 11 10 8 7 9 10 12 14 16 18 20 22 23 25 26 26 26 25 24 23
22 21 20 19 19 18 17 17 16 16 15 15 14 13 11 10 8 7 6 5 4 4 5 6 8 9 10 11 11 12 11 12 13 13 13 12 11 11 10 10 10 10 9 9 8 9 10 10 9 9 9 9 10 10 10 10 11 11 13 14 13 12 12 12 12 13 13 13 12 11 11 11 13 15 17 20 21 23 25 26 27 28 28 27 25 25 24 24
21 21 21 20 20 19 18 18 17 16 15 13 12 10 9 7 6 4 4 4 5 6 7 9 10 10 11 11 10 10 9 10 11 9 9 8 8 8 8 8 8 8 7 7 7 7 9 8 7 7 8 8 9 10 11 11 12 13 14 15 12 11 11 11 12 12 12 13 13 14 15 16 19 21 23 25 26 28 28 28 29 29 28 26 25 25 24 24
21 21 21 21 20 19 18 17 15 14 12 11 9 7 6 5 3 3 4 6 7 8 9 9 9 9 9 8 7 6 6 7 7 6 6 6 7 7 7 7 7 7 7 7 7 8 9 9 7 6 6 8 9 10 10 10 11 13 14 13 12 10 10 11 12 13 13 14 15 16 18 19 21 24 26 27 29 30 28 27 28 28 26 26 25 25 25 25
21 20 20 20 19 17 15 14 12 11 9 7 6 5 4 3 4 5 6 8 8 8 8 7 7 6 6 5 4 3 4 5 5 4 5 6 6 6 7 8 8 8 8 8 8 9 9 9 9 7 7 9 10 9 9 10 11 13 13 12 12 12 12 13 14 16 16 17 18 19 20 22 24 26 27 28 29 28 27 26 27 27 26 26 26 26 27 26
22 19 18 16 15 13 12 10 9 8 6 5 4 4 4 4 6 7 8 8 7 6 6 5 5 5 4 4 3 3 4 4 4 5 6 6 7 8 9 9 8 9 9 10 9 10 9 9 9 9 9 10 11 11 10 11 12 13 13 13 13 14 14 15 17 18 19 20 21 22 24 26 28 29 29 30 29 28 27 27 27 27 27 28 28 28 27 27
22 19 16 14 11 9 8 7 6 5 4 4 5 5 6 7 8 8 7 6 5 5 5 4 4 4 4 4 4 4 5 6 6 7 8 8 9 10 10 10 8 8 9 9 9 9 9 9 9 9 10 11 11 12 11 12 13 13 14 14 14 15 16 17 18 19 21 22 23 25 27 29 31 31 31 31 29 28 28 27 27 27 27 27 27 27 27 27
16 14 12 10 7 6 5 4 4 4 5 6 7 8 9 8 7 6 5 5 5 5 5 5 5 5 4 4 5 6 6 7 7 9 9 8 9 10 10 9 8 8 7 7 8 8 8 8 8 9 10 10 11 11 12 12 13 14 14 15 15 15 16 17 19 21 23 24 26 29 30 31 31 32 32 29 25 25 25 25 25 26 26 26 26 26 26 26
11 10 8 6 5 4 4 4 5 7 8 9 9 9 8 6 5 4 4 4 5 5 5 5 5 5 5 5 6 7 7 7 8 9 9 8 9 9 9 8 7 7 6 6 7 8 8 8 8 8 9 10 10 11 13 13 14 15 15 15 16 16 17 19 20 22 25 26 28 30 29 29 29 31 30 24 22 23 23 24 25 25 26 26 26 26 25 25
8 7 5 5 5 5 6 6 6 7 8 7 7 5 5 5 4 4 4 4 5 5 5 5 6 6 6 5 6 8 8 8 8 8 9 9 9 8 8 7 7 7 6 7 8 8 8 8 8 9 9 10 11 11 12 13 14 16 16 17 18 19 20 21 22 23 24 25 27 28 27 26 28 29 26 21 21 23 23 24 24 25 26 26 27 27 26 26
6 5 5 5 5 4 4 4 4 4 4 4 4 5 6 5 4 3 3 4 4 5 5 5 5 5 5 5 6 7 7 7 8 8 9 9 8 8 8 7 7 7 8 8 8 8 8 8 8 9 9 9 10 11 12 13 14 16 17 18 19 20 21 21 21 22 22 22 23 25 26 25 25 26 23 21 22 23 23 23 24 25 25 25 26 26 26 26
5 5 4 4 3 3 2 2 2 3 4 5 6 6 6 4 2 2 3 3 3 4 4 4 4 4 5 6 6 6 7 8 8 9 9 8 8 8 8 7 7 8 8 8 8 8 8 9 8 9 9 9 10 11 11 12 13 15 16 17 18 19 20 21 20 19 20 20 21 24 25 20 18 20 20 19 20 20 22 22 23 23 23 23 24 24 25 26
5 5 5 5 5 4 4 4 4 5 6 7 7 6 4 2 2 3 2 2 2 3 3 3 3 4 5 5 5 6 7 8 8 8 8 7 6 6 7 7 7 7 7 7 7 7 8 9 8 8 8 9 10 11 11 13 14 15 16 17 17 17 17 18 17 18 18 19 20 22 24 17 14 17 18 17 19 21 22 22 22 22 21 21 21 21 22 23
7 6 6 5 5 4 4 4 4 4 5 5 4 3 2 2 3 2 1 1 1 1 2 2 3 4 4 4 5 7 7 7 6 6 6 5 5 5 6 6 6 6 7 7 7 7 7 8 8 8 8 8 9 10 11 13 13 14 15 15 15 15 15 15 16 17 17 19 20 21 23 19 16 16 18 19 21 22 22 22 22 21 20 20 20 20 20 20
7 6 5 4 3 3 3 2 2 2 2 3 3 3 3 3 2 2 2 2 2 2 1 1 3 4 3 2 5 6 6 5 5 5 5 5 6 6 6 6 6 6 7 7 7 7 7 7 8 8 7 8 8 9 10 11 12 12 12 11 13 14 14 14 15 17 17 19 21 20 23 23 19 17 19 21 22 23 23 22 21 19 18 19 19 19 18 18
6 5 4 3 3 2 2 2 1 1 2 3 3 3 3 2 2 2 2 1 2 2 1 1 4 2 1 2 5 5 5 6 5 5 6 6 7 7 7 7 7 7 7 7 8 7 7 8 8 7 7 7 7 8 9 9 9 10 10 11 13 14 15 14 13 16 18 19 19 19 23 25 22 21 22 22 21 22 24 21 18 17 17 17 18 17 17 15
6 5 4 4 4 3 3 2 1 1 2 3 2 2 2 2 1 1 1 1 1 1 1 2 3 0 1 3 5 4 6 6 5 6 5 6 7 7 8 7 7 7 7 7 7 7 8 8 7 6 6 6 6 7 7 7 8 10 11 12 13 14 14 14 13 15 17 18 18 19 24 27 25 22 20 19 21 23 22 17 14 15 16 16 17 17 16 15
5 5 5 5 4 4 3 3 2 2 2 2 2 1 1 1 1 1 1 1 1 1 1 2 3 1 1 4 5 5 6 6 5 6 6 7 7 7 7 6 6 6 6 7 6 6 6 6 5 5 6 7 7 8 7 7 9 11 12 13 13 13 12 13 15 15 15 18 20 20 25 26 23 18 15 15 19 19 16 12 11 14 15 16 18 17 16 15
4 4 5 5 4 3 3 3 3 2 2 1 1 2 2 1 1 1 1 1 2 2 2 2 3 3 2 3 4 5 5 6 6 6 6 7 6 6 6 6 5 6 6 6 5 4 4 5 6 7 8 9 9 10 9 9 10 11 12 12 13 13 11 13 16 15 17 21 21 21 25 23 20 17 14 13 14 14 11 10 12 16 17 17 17 17 16 15
3 3 3 3 4 3 3 3 3 2 2 1 1 2 1 1 2 1 1 1 2 2 3 3 3 3 3 4 4 4 5 6 6 7 7 6 6 6 7 7 7 7 7 6 5 5 6 7 8 9 10 10 10 10 10 10 10 11 11 10 12 14 14 15 16 15 19 23 22 22 24 21 20 18 14 12 13 12 12 12 14 18 19 19 17 15 14 13
3 3 2 2 3 2 2 3 3 2 2 2 1 1 1 1 2 1 1 2 2 2 3 3 3 3 4 4 5 5 6 6 7 7 7 7 7 7 8 8 9 8 7 7 7 7 7 8 8 9 9 9 9 9 9 10 10 11 11 11 12 15 17 17 16 18 22 23 21 22 22 20 20 18 14 13 14 13 14 14 15 17 19 19 17 15 13 11
2 3 1 2 3 2 1 2 2 2 2 2 1 1 1 0 0 1 1 2 2 2 3 3 3 3 4 5 5 6 6 6 8 8 7 7 7 7 7 8 9 8 6 7 8 6 7 8 7 8 8 7 8 8 9 11 11 11 11 12 13 16 18 17 17 21 23 22 21 20 21 20 20 16 13 14 14 14 15 14 13 16 18 19 18 15 12 11
2 2 1 1 2 2 0 1 1 2 3 2 2 1 1 1 1 1 2 3 2 2 3 4 4 5 5 5 5 6 6 7 8 7 7 7 7 7 7 7 8 8 7 7 8 7 6 6 6 7 8 8 8 8 10 11 12 12 11 12 14 16 18 18 20 21 22 22 19 19 20 21 20 15 12 14 14 14 13 13 14 16 18 18 17 15 13 13
2 3 3 1 1 2 1 0 0 2 3 2 1 1 1 1 1 2 4 4 2 2 3 4 5 5 5 5 5 5 6 7 7 7 7 7 7 7 7 7 8 9 8 6 7 7 7 6 6 7 8 9 8 9 10 11 11 12 11 13 15 17 17 19 20 20 22 21 17 20 20 20 21 14 12 16 14 12 11 11 13 15 16 17 16 14 12 12
2 3 4 3 1 2 1 1 2 3 3 2 1 1 1 2 3 4 5 4 2 3 3 4 5 5 5 5 4 5 5 6 6 7 7 7 8 8 7 8 9 9 9 7 6 6 7 7 7 8 8 10 9 9 11 11 12 12 11 13 16 17 18 20 20 20 22 17 17 21 14 16 24 15 12 17 13 10 10 9 11 12 14 15 15 15 13 13
3 3 4 4 2 2 2 2 3 3 2 1 1 1 2 2 4 5 5 4 1 2 3 3 3 4 5 4 4 4 5 5 6 7 7 7 8 8 8 8 8 9 9 8 7 6 7 8 8 8 9 9 10 10 11 12 14 14 13 15 16 19 20 21 21 21 19 15 18 18 6 11 25 21 13 15 13 10 9 9 10 11 13 15 15 16 15 15
4 4 4 4 3 3 3 3 4 3 2 2 2 2 2 3 4 5 4 2 1 1 3 3 2 3 4 5 5 4 4 4 5 7 7 8 8 8 8 8 8 8 8 8 7 6 7 8 7 8 9 9 10 11 11 13 15 14 15 17 17 20 21 21 22 20 19 18 19 16 8 9 19 24 18 13 15 13 9 10 11 10 12 14 15 16 15 16
4 4 4 4 4 4 4 4 4 4 3 3 2 2 3 3 3 4 4 1 1 2 1 2 2 3 4 4 4 5 5 5 4 6 7 7 7 8 8 7 7 7 8 8 8 8 8 7 7 8 9 10 10 11 12 14 15 15 18 19 18 21 22 22 21 19 17 16 14 12 9 7 14 26 21 12 17 17 12 12 12 13 12 12 15 16 16 16
3 4 4 5 5 4 4 5 5 5 4 4 3 3 3 4 3 4 3 1 2 3 2 3 3 3 3 3 3 4 5 5 5 6 6 6 7 7 7 7 6 6 7 8 8 9 8 8 7 7 10 12 12 11 13 15 15 17 19 19 20 22 23 21 19 17 12 9 9 10 7 4 12 27 19 13 21 21 17 14 11 15 14 12 14 14 15 16
3 4 5 5 5 5 5 5 5 5 5 4 4 3 4 4 3 3 2 2 4 5 3 3 3 3 3 2 3 4 4 5 5 5 5 5 5 5 5 6 6 4 6 8 8 9 9 9 8 7 11 13 12 12 13 15 16 19 19 20 23 23 20 17 16 13 5 5 6 7 6 3 8 22 19 15 22 23 20 15 11 16 13 10 13 14 14 16
4 5 5 6 5 5 6 6 5 5 5 4 4 4 4 4 4 3 2 3 5 6 4 3 3 2 2 2 3 3 3 4 4 4 4 4 4 5 5 6 8 5 6 9 10 10 9 9 9 8 12 14 12 12 14 15 17 18 19 21 22 18 13 11 11 5 1 4 4 5 6 4 7 18 22 18 19 21 20 16 14 18 15 11 14 14 15 17
4 5 6 6 6 5 6 6 6 5 5 5 5 5 5 5 5 5 4 5 5 6 6 4 3 3 2 2 2 2 2 2 2 2 3 3 3 5 6 6 9 7 7 11 13 12 11 10 8 8 13 15 12 14 16 16 16 17 20 21 15 9 6 5 4 2 3 5 3 5 5 7 17 25 23 17 18 19 17 14 15 19 19 18 17 17 17 17
5 6 6 7 6 6 6 6 6 5 5 6 6 6 6 5 4 4 7 7 3 5 7 4 3 3 2 1 1 0 1 1 2 2 3 4 4 5 5 7 9 8 8 11 14 15 14 11 9 10 13 14 14 17 17 15 15 18 21 18 9 2 4 4 4 3 6 5 5 8 5 9 19 18 11 14 21 21 16 13 17 21 22 22 20 17 17 16
6 6 7 7 6 6 6 6 5 5 6 7 7 7 7 6 4 4 8 7 3 6 7 5 4 3 2 2 1 1 1 1 2 3 3 4 5 5 5 7 10 9 9 10 11 13 12 10 10 12 14 16 16 16 16 16 17 18 18 13 8 4 2 4 4 3 7 8 7 9 7 8 11 6 8 20 23 19 15 14 18 22 25 25 19 14 15 18
7 7 8 8 7 7 7 6 6 6 7 8 8 9 10 7 5 6 7 6 5 7 7 5 5 4 3 3 3 2 2 2 3 4 4 5 7 6 6 8 10 11 9 8 9 10 9 11 14 16 17 17 16 15 16 17 14 13 14 12 12 10 7 8 10 10 11 10 8 10 11 13 15 13 16 21 19 15 14 17 20 23 30 29 19 15 17 21
7 8 8 8 7 7 7 7 6 7 8 9 10 11 11 7 5 6 7 6 6 6 6 6 6 5 5 4 4 3 4 4 5 6 5 7 8 7 6 9 11 11 9 9 10 7 7 12 18 19 18 17 15 16 18 17 13 13 15 15 14 14 12 11 12 12 8 6 7 9 13 19 18 16 15 15 18 17 16 21 26 30 35 31 22 20 21 26
8 9 9 8 8 8 8 7 7 8 9 10 12 12 10 9 7 7 7 7 7 7 7 7 6 5 5 4 5 5 5 5 6 7 8 9 8 6 7 10 12 11 10 11 11 10 12 17 21 19 16 15 16 18 21 19 17 17 17 17 15 13 10 7 5 5 2 2 7 9 16 20 14 13 13 14 18 19 21 28 33 35 33 27 24 24 27 33
9 9 10 9 9 9 8 8 8 9 10 12 13 11 10 10 9 8 8 8 7 7 7 7 7 6 6 6 6 6 6 7 7 8 10 10 8 7 9 12 12 11 13 14 13 14 15 17 20 19 14 13 16 20 22 20 18 18 17 16 14 10 8 6 3 3 2 2 5 8 16 20 16 15 14 12 16 21 27 32 33 31 27 24 25 28 33 41
10 10 10 10 9 9 9 8 9 10 11 13 13 11 10 10 10 10 10 9 8 8 8 8 7 6 6 7 6 7 7 8 9 10 10 9 9 11 12 13 12 12 15 17 16 17 16 13 16 19 16 15 18 20 20 19 18 17 16 16 16 13 13 11 7 5 3 2 4 8 12 14 12 11 14 18 26 32 33 32 28 25 25 26 29 34 40 46
11 10 10 10 10 10 10 9 10 11 13 13 12 11 10 9 10 11 11 10 10 9 8 8 8 7 7 7 8 9 10 10 11 12 11 11 12 13 12 12 14 16 18 18 18 18 17 14 15 21 22 20 19 19 20 23 21 19 18 17 16 15 14 13 13 13 10 4 2 2 7 12 12 14 24 32 36 36 33 30 28 26 27 30 35 42 48 50
11 10 10 10 10 10 10 10 11 12 13 13 12 11 11 10 10 11 11 11 11 10 9 9 9 8 8 9 9 11 11 12 13 13 13 13 13 12 12 13 16 18 18 19 19 18 17 16 20 27 28 25 23 22 23 24 21 18 17 15 15 15 13 8 8 14 14 9 7 3 6 23 30 28 33 34 32 32 32 30 30 29 30 35 42 49 51 51
10 10 10 10 11 11 11 11 11 12 13 12 11 11 11 12 11 11 12 12 11 11 10 10 10 10 10 11 11 11 12 15 16 15 14 13 13 14 15 17 18 18 19 20 20 18 17 18 24 30 31 27 24 22 19 17 14 12 12 14 15 14 14 10 6 11 12 12 15 8 6 28 38 30 29 28 26 28 29 29 31 33 38 44 49 52 52 50
10 10 10 11 11 11 11 12 12 12 13 12 12 12 12 12 12 12 12 12 12 12 12 12 11 11 12 12 12 12 13 15 17 17 16 15 16 16 17 19 19 19 20 19 19 19 16 16 21 30 32 28 24 20 14 10 9 10 12 16 16 15 17 16 15 18 17 16 17 7 5 27 32 24 25 26 24 27 29 33 37 41 46 49 50 51 51 50
10 11 11 11 11 11 11 12 11 12 13 12 12 13 13 13 13 13 13 13 13 12 12 12 12 12 13 12 13 14 13 13 15 18 19 18 18 18 19 20 20 19 19 19 20 20 17 16 19 22 22 22 20 15 12 13 13 15 17 19 18 17 16 17 20 19 17 22 21 7 9 30 32 25 30 32 31 35 37 40 45 46 48 49 49 51 51 53
10 11 11 11 11 11 11 11 11 12 13 13 13 13 13 13 13 13 13 13 13 13 13 13 13 13 14 14 14 15 14 14 16 19 20 19 19 20 20 20 19 20 21 21 23 23 22 23 23 16 9 8 12 13 17 23 23 24 26 24 23 22 19 18 18 14 14 23 24 14 19 36 37 31 36 39 38 41 41 43 46 46 46 47 48 51 53 55
11 11 11 11 11 11 11 11 11 12 12 12 13 13 13 14 13 13 13 14 14 14 14 14 14 14 14 14 15 15 16 16 18 20 21 21 21 21 21 21 21 22 22 23 23 23 25 27 26 23 21 19 21 23 24 26 27 28 28 25 24 24 24 23 19 18 21 25 29 30 33 39 39 35 37 40 40 42 43 44 45 45 46 48 50 53 55 56
11 11 11 10 10 9 10 11 12 13 12 12 12 12 12 12 12 13 13 14 14 14 14 15 14 14 14 14 16 17 18 18 19 22 23 23 23 23 23 23 24 23 23 24 23 22 25 29 28 28 28 27 27 27 25 25 28 28 25 23 22 20 22 25 24 25 26 22 26 36 36 35 37 38 38 41 42 43 45 44 44 45 47 50 53 55 55 56
11 11 11 10 10 9 9 9 11 12 12 13 13 13 11 11 11 12 12 13 14 14 15 15 13 13 14 15 17 18 19 20 21 23 23 23 24 25 25 25 25 25 25 24 23 23 25 29 30 29 30 29 27 27 26 26 26 25 24 23 23 22 24 28 26 25 25 25 29 35 35 35 38 38 38 41 42 43 44 43 44 47 50 52 54 54 56 59
10 10 10 10 11 11 11 10 10 11 11 13 14 13 12 11 11 11 12 13 13 13 15 15 13 13 16 16 18 20 20 19 21 23 24 25 26 26 27 27 26 26 25 24 23 23 23 27 29 29 31 30 27 26 26 24 23 25 26 26 27 26 24 23 21 20 22 28 32 33 34 37 38 36 38 40 39 41 43 44 47 50 52 53 54 57 61 65
11 10 10 11 11 12 12 12 12 12 12 13 13 13 12 11 11 12 13 13 13 13 14 14 13 14 17 18 20 21 19 19 22 25 25 26 27 27 27 27 27 26 26 25 24 23 23 26 27 28 31 30 27 25 24 22 22 27 31 32 28 22 17 17 21 22 23 27 30 29 34 38 37 35 37 38 39 43 45 48 51 51 51 54 58 63 66 67
12 13 12 13 13 12 13 12 12 13 13 13 13 12 12 12 12 12 13 13 14 14 14 14 15 16 18 20 22 21 19 21 24 26 26 27 28 28 27 28 28 28 28 28 27 26 24 25 27 26 27 30 28 24 23 23 25 32 34 28 19 15 17 23 27 27 26 28 29 30 34 37 36 36 39 42 44 47 48 49 50 51 55 60 64 66 65 62
14 15 14 15 15 13 13 13 13 13 13 12 12 11 11 11 11 12 13 13 14 14 14 15 17 18 20 21 22 21 22 24 26 26 27 27 28 28 29 29 29 29 29 28 27 28 25 25 26 21 20 27 27 23 25 26 24 27 24 15 12 18 26 30 30 28 27 27 30 33 35 36 37 40 44 46 47 48 48 49 52 56 62 65 66 64 60 56
Wind_Direction
147 147 143 142 142 142 146 148 149 149 149 147 146 147 146 146 148 153 158 163 170 182 201 221 237 248 255 260 263 263 266 269 270 271 272 274 276 279 280 281 281 282 283 283 278 274 275 276 275 271 266 262 260 259 260 259 257 258 257 259 265 273 279 284 285 283 283 285 291 293 286 271 262 263 265 267 269 275 279 281 286 290 295 298 299 296 293 288
138 139 139 138 138 140 142 143 143 141 141 142 144 146 148 152 158 166 174 187 208 229 244 252 256 259 262 266 268 270 272 271 271 274 276 277 280 282 286 287 285 284 282 281 278 276 279 281 278 273 267 265 263 260 259 260 260 260 260 264 270 278 285 288 287 286 286 286 285 281 274 270 271 274 276 277 279 281 282 286 290 294 296 296 294 291 287 284
136 134 135 135 134 136 137 137 137 138 141 145 149 152 156 162 170 186 210 238 257 262 263 262 263 265 268 270 271 274 273 270 271 274 277 280 283 287 291 290 287 283 278 276 278 279 279 284 284 274 267 264 261 260 260 261 262 260 260 266 272 281 290 294 293 291 289 288 284 281 279 279 281 284 283 284 285 283 283 288 292 293 294 292 290 288 286 283
133 132 134 133 133 136 135 137 139 142 147 151 156 159 165 179 204 241 264 275 277 273 269 266 266 267 269 271 276 279 273 270 271 271 276 279 279 284 288 287 281 275 273 275 278 280 279 284 286 276 265 256 252 254 255 257 259 257 259 267 272 279 290 298 301 297 292 288 285 285 285 286 287 286 285 286 286 284 286 290 290 290 290 289 288 287 285 282
129 131 132 130 133 135 136 139 143 148 151 156 166 176 190 219 257 276 283 284 279 274 268 264 263 262 265 276 289 289 280 275 265 263 272 271 271 280 289 291 284 275 272 275 276 276 276 278 278 272 262 252 249 248 244 245 249 254 260 264 269 278 288 295 298 296 292 288 287 287 288 291 293 290 287 284 283 285 288 288 287 287 285 284 283 282 281 281
122 124 125 129 133 133 137 144 151 157 164 176 194 213 235 258 273 279 279 274 265 257 251 250 252 257 274 298 308 304 297 280 260 267 277 272 274 283 293 298 293 281 273 272 274 275 275 274 273 269 262 256 253 252 248 246 250 258 266 270 274 281 288 291 292 291 289 287 287 287 288 293 294 292 289 285 286 289 289 286 285 284 281 280 278 277 277 276
123 124 129 136 139 141 149 158 167 177 191 210 233 249 258 264 266 266 257 242 234 232 235 243 255 271 293 310 307 303 303 288 272 282 289 286 285 286 292 297 294 283 274 274 277 281 282 277 274 270 265 261 259 260 258 255 256 262 270 277 281 284 286 286 286 286 285 285 285 286 289 292 293 292 288 288 292 292 290 288 286 283 282 281 279 278 275 273
130 132 139 147 152 160 167 183 202 219 237 243 249 253 257 256 251 240 221 217 224 233 242 251 267 283 293 297 295 297 301 298 289 290 294 295 292 290 293 296 290 282 281 285 286 290 291 286 281 275 271 266 266 266 264 261 261 265 271 277 280 282 282 282 283 283 283 285 286 287 290 292 292 291 289 292 295 293 292 291 289 287 286 284 282 280 276 273
134 136 146 157 169 187 208 228 234 242 247 247 247 246 245 235 216 207 210 227 236 243 249 256 269 275 279 279 286 294 300 303 297 294 297 301 299 297 302 303 295 291 296 303 303 304 300 296 291 284 278 272 271 269 266 265 267 272 276 277 280 280 280 281 282 283 285 286 287 289 291 291 292 290 291 298 297 293 294 293 290 288 287 285 283 280 278 275
135 145 162 181 199 215 227 235 238 241 241 240 238 225 205 186 183 199 223 240 243 243 244 249 257 263 272 277 288 298 302 303 299 298 301 303 303 305 310 311 309 310 314 317 314 311 305 299 293 285 279 274 272 271 270 269 270 275 277 278 280 279 280 282 283 285 287 288 290 291 292 294 293 291 297 304 298 295 295 291 288 287 285 284 282 279 277 275
147 165 182 198 206 211 218 224 225 222 219 210 191 171 164 166 182 216 242 249 245 239 237 243 255 270 283 290 301 303 303 304 303 303 303 304 310 314 317 320 324 325 321 320 317 312 305 296 291 284 277 277 278 277 276 275 274 276 277 278 280 281 284 285 287 289 290 292 294 295 297 297 293 295 304 306 300 297 294 291 291 289 287 284 281 279 276 274
157 165 171 171 160 151 147 145 148 159 160 154 152 154 159 177 220 261 273 263 246 237 234 244 263 283 294 299 304 306 308 311 312 310 311 317 324 326 328 331 331 327 321 321 320 315 306 298 295 289 283 284 284 283 284 283 283 281 281 282 284 286 289 289 292 293 295 299 299 303 306 307 306 309 311 307 304 301 298 298 296 294 292 289 286 282 278 275
140 138 137 133 126 120 113 108 115 130 140 144 152 164 180 228 274 291 289 259 234 223 224 246 268 284 294 296 301 312 316 317 318 318 322 329 333 335 335 335 330 322 321 324 325 319 311 309 305 297 293 290 286 286 288 288 289 288 289 291 291 292 291 293 296 297 300 303 305 310 312 326 346 331 320 317 314 309 305 304 303 303 301 297 293 290 285 279
125 125 125 127 125 121 115 113 122 136 150 160 173 196 233 274 286 286 262 196 180 173 204 245 271 291 296 293 304 316 320 322 325 326 332 334 337 344 340 337 332 325 327 329 327 323 322 325 318 307 300 294 291 290 289 291 294 296 298 298 299 301 300 302 303 303 305 306 309 312 309 325 353 342 329 327 321 314 309 308 313 314 309 304 301 298 296 289
120 120 120 122 120 120 125 141 157 169 186 205 225 246 265 271 266 241 178 158 151 155 184 272 298 301 294 296 314 321 326 332 334 339 346 346 347 352 350 348 343 335 336 336 338 340 342 339 326 315 309 303 301 297 294 297 302 306 308 306 307 310 313 316 313 311 313 311 314 316 311 321 340 340 332 328 322 312 307 313 320 317 311 310 310 309 308 300
117 112 107 101 92 94 105 127 164 210 228 241 247 253 258 250 237 204 168 160 156 150 126 339 324 304 220 328 328 329 343 345 350 360 355 352 356 360 1 1 354 348 348 348 352 352 346 339 328 323 322 315 309 305 302 305 313 322 325 323 322 323 327 330 325 320 321 319 321 322 314 319 332 336 331 325 317 304 304 315 320 317 317 316 317 318 316 309
111 102 90 77 68 67 78 96 128 188 211 221 225 235 246 236 217 186 159 143 140 131 88 3 349 251 206 342 340 341 356 360 6 6 359 3 11 11 11 11 3 360 360 358 359 351 342 338 331 330 332 328 324 324 325 329 339 345 343 338 335 338 339 339 332 327 329 324 325 324 313 319 334 338 334 321 303 297 306 317 319 321 323 320 319 318 316 313
105 94 76 62 57 60 81 104 131 161 182 184 186 180 188 208 191 170 163 123 99 130 104 17 30 73 330 341 346 354 6 15 17 14 17 20 20 21 21 18 14 14 12 3 357 350 347 345 340 346 354 356 358 360 359 356 356 356 355 351 347 349 350 341 334 335 336 327 328 327 319 327 344 348 343 323 307 310 317 319 322 325 321 313 313 314 314 314
103 90 69 58 56 65 96 112 124 130 136 161 175 157 151 183 180 174 185 144 104 101 63 33 43 43 14 355 2 15 21 28 30 31 34 30 29 37 34 29 30 33 25 10 1 2 7 11 11 13 15 15 13 13 15 9 6 2 359 358 350 349 353 340 332 335 334 331 336 335 328 339 355 355 348 334 329 334 330 324 326 325 319 311 306 306 309 310
120 102 71 55 48 60 101 108 112 113 128 162 166 150 150 195 206 254 227 161 103 72 48 47 44 31 29 24 29 39 41 42 43 44 41 38 42 46 44 41 42 43 38 32 26 26 30 28 27 26 23 22 17 16 17 11 8 2 356 358 348 341 345 341 333 333 332 335 345 342 335 348 2 360 353 345 347 346 337 333 328 326 326 321 311 300 299 304
137 128 85 42 28 42 99 115 120 122 139 145 126 128 114 196 221 261 221 153 95 54 46 53 41 34 40 41 49 55 56 54 48 44 42 42 45 48 51 46 42 43 44 44 37 36 37 32 32 30 24 20 18 17 14 9 4 358 349 347 347 339 340 344 338 334 333 336 345 342 336 351 6 6 1 356 357 352 344 342 332 331 333 328 319 302 293 301
159 159 134 38 15 18 86 137 140 128 120 101 74 62 33 57 244 278 183 146 102 51 56 66 58 57 51 51 60 61 66 63 48 44 45 48 48 50 55 49 44 46 51 49 41 44 45 38 36 30 24 18 16 13 9 6 358 353 345 340 344 340 339 345 341 336 334 333 338 338 335 350 7 10 8 6 1 353 347 345 338 332 330 327 324 313 296 294
194 196 191 46 11 5 33 180 156 108 92 76 53 30 343 336 332 272 195 157 102 61 78 83 80 76 60 60 68 62 64 59 49 49 52 56 58 60 62 53 48 49 54 48 40 46 46 40 33 22 20 12 8 6 2 2 356 348 343 339 340 340 339 340 338 335 332 328 332 334 332 349 10 16 12 9 3 356 350 343 336 329 327 327 327 322 305 295
222 218 212 214 351 346 322 256 23 68 78 73 49 359 288 263 247 228 195 172 104 74 95 84 73 69 61 69 79 70 66 60 55 57 57 61 63 63 59 51 48 45 46 43 38 43 35 29 24 12 12 6 2 1 356 357 353 343 338 338 336 336 333 330 331 332 329 327 329 332 331 346 8 22 8 2 4 1 357 344 334 328 328 328 325 325 316 304
235 225 221 222 287 324 343 351 4 36 59 64 38 241 221 208 214 205 186 175 103 63 89 85 69 61 60 75 88 83 76 68 64 60 59 62 60 58 53 47 45 39 37 37 34 33 26 21 15 7 4 0 358 355 351 350 346 340 334 334 332 331 328 325 325 326 327 324 326 334 335 338 352 13 10 357 4 5 0 349 334 329 330 330 327 325 318 307
238 234 229 229 261 321 347 351 359 13 20 351 283 218 203 201 201 196 191 187 149 66 70 82 73 61 66 79 93 94 83 72 69 63 60 60 57 55 50 42 40 36 33 32 28 21 17 10 4 4 358 353 351 346 344 343 340 337 331 330 329 327 326 322 321 322 320 312 316 323 306 307 334 355 8 358 1 358 355 351 336 326 327 329 329 326 321 313
241 245 241 241 259 308 336 343 352 350 330 306 271 220 204 202 198 197 196 194 199 111 69 80 93 85 85 82 84 90 90 81 73 67 61 57 55 51 44 39 35 30 26 23 20 12 7 1 355 354 347 342 341 337 336 336 335 332 329 328 326 325 324 318 316 315 306 304 308 304 278 274 312 337 352 360 359 349 342 348 340 325 319 320 323 325 324 319
246 252 253 252 261 291 320 335 340 325 310 297 265 228 213 203 189 191 187 177 223 207 95 100 114 103 95 86 82 83 85 83 75 69 60 54 55 48 39 35 30 24 19 14 10 4 355 351 348 343 340 334 329 328 328 329 329 327 325 325 323 323 321 314 311 307 301 306 302 286 283 256 289 324 343 1 356 348 340 344 344 336 322 312 317 319 318 316
255 260 263 261 265 282 303 315 319 311 301 286 260 238 217 201 187 187 187 199 201 184 141 116 121 116 105 93 92 84 77 74 70 68 60 52 51 41 31 27 20 18 15 6 0 359 350 342 337 334 337 331 320 319 321 323 324 323 323 322 321 321 318 313 306 302 299 294 285 274 269 225 294 318 333 359 352 345 338 335 336 341 330 310 314 315 312 311
265 266 267 265 269 277 289 298 302 300 290 270 253 238 216 202 193 181 187 222 196 179 160 135 130 130 117 94 92 87 75 71 64 62 57 49 45 30 21 17 8 2 6 3 352 346 344 338 328 326 336 333 319 312 315 320 321 320 319 319 321 321 316 308 298 300 303 279 266 248 246 214 298 313 325 347 342 335 331 324 323 341 339 309 306 306 303 300
268 266 266 265 267 271 281 289 289 288 275 252 242 231 214 206 202 199 207 212 193 177 168 156 150 143 125 96 91 87 77 69 57 54 44 33 30 17 9 3 358 349 344 352 348 341 341 336 326 321 331 332 321 312 312 313 315 316 316 320 323 320 313 301 290 287 221 274 250 213 257 227 236 301 320 328 325 326 323 313 320 340 339 316 302 294 288 284
266 265 265 262 266 271 279 284 281 276 256 237 233 226 218 211 223 238 206 179 179 178 172 165 165 162 141 109 91 78 79 59 29 27 13 3 2 1 360 348 346 346 338 343 345 340 337 334 327 320 329 333 323 317 316 310 312 312 314 321 326 327 331 307 275 250 230 251 235 223 258 245 259 290 312 316 319 324 313 298 312 330 331 321 305 287 280 279
264 262 262 260 268 274 278 281 273 263 243 230 227 221 215 211 233 233 189 177 189 189 182 176 174 174 164 154 137 110 93 17 352 341 336 339 327 327 340 339 338 338 332 338 341 338 336 334 331 325 329 330 321 318 316 309 311 308 309 318 320 342 6 306 274 292 280 263 239 243 251 267 277 291 312 313 315 313 298 289 308 325 332 324 305 286 283 286
265 262 260 259 267 274 276 275 263 252 237 229 226 215 213 222 236 209 186 192 200 181 181 183 184 188 189 202 217 234 264 275 320 318 306 317 315 302 313 329 334 330 322 328 334 333 326 321 326 326 324 324 320 317 314 310 310 304 305 312 298 281 280 266 260 271 292 298 266 247 243 262 273 287 311 305 304 295 284 292 311 326 331 321 303 287 292 297
266 264 264 263 269 275 275 270 256 247 237 231 227 217 217 231 238 211 195 199 191 181 190 196 197 209 216 221 230 256 277 258 289 308 297 303 307 296 299 320 328 324 317 318 323 320 303 303 318 320 318 319 316 313 312 312 309 302 304 305 293 285 264 257 269 273 286 308 288 246 241 260 273 291 298 290 282 270 273 296 309 315 317 309 287 270 287 299
265 265 267 267 273 278 273 267 254 244 241 235 231 227 228 237 236 217 206 205 200 195 201 205 212 227 231 233 243 262 275 270 286 301 302 306 303 288 293 315 321 318 311 310 314 306 283 297 312 315 314 315 312 311 312 309 302 295 298 298 294 292 282 266 274 283 286 302 288 258 263 277 287 303 298 263 251 255 268 291 299 302 306 298 273 266 284 298
264 266 269 270 277 278 270 263 253 245 244 239 236 236 237 238 232 221 215 215 209 204 210 215 221 230 232 241 254 261 271 280 289 298 304 308 303 287 294 310 316 314 310 310 309 301 290 296 307 311 307 306 308 309 307 305 300 291 289 293 296 296 287 263 268 307 333 282 276 265 276 287 294 311 302 255 244 261 278 293 300 301 298 283 270 278 292 303
264 265 269 273 277 276 268 261 253 248 246 241 240 242 242 239 233 226 221 214 209 213 219 221 226 231 235 246 257 261 272 285 291 300 306 307 303 300 305 311 313 312 311 311 306 303 300 299 306 309 300 298 304 304 304 304 298 291 287 288 289 283 276 256 241 301 316 277 287 280 283 290 293 300 297 274 274 290 297 301 302 297 287 276 276 287 299 310
265 266 271 274 275 274 267 259 254 250 246 244 243 242 242 239 233 228 222 215 216 222 222 225 232 235 239 250 261 268 276 285 293 301 305 303 303 309 312 311 311 310 310 309 304 303 302 294 299 306 301 297 302 303 303 301 298 293 288 282 280 275 271 264 242 232 239 251 290 297 297 297 299 302 299 300 305 306 304 303 298 290 286 288 292 299 309 315
268 269 271 273 274 273 269 260 255 251 247 245 241 239 241 238 232 226 221 219 223 225 226 232 236 238 249 259 267 277 283 286 293 298 297 298 303 309 310 308 308 308 306 305 303 302 300 286 285 297 298 297 303 307 302 297 295 292 287 283 283 279 273 271 264 252 245 227 224 299 297 286 285 293 297 302 306 304 301 299 294 291 293 297 303 309 313 313
270 269 269 272 272 272 269 262 256 251 247 244 238 238 240 237 232 225 222 224 227 230 234 237 239 247 261 268 272 283 289 291 296 297 292 296 303 305 306 304 305 304 302 301 301 300 296 286 283 290 295 298 306 307 298 293 292 288 287 288 289 282 268 264 273 263 247 230 235 225 276 284 287 292 296 300 302 298 295 293 291 293 296 300 304 307 307 308
269 269 270 272 272 272 270 263 259 254 248 242 237 237 239 236 233 228 227 230 232 236 240 243 247 256 264 270 276 283 290 295 298 298 294 296 300 301 303 303 302 301 300 299 299 297 294 287 286 291 298 304 308 305 296 290 286 281 284 291 296 289 269 248 245 270 263 245 248 239 265 285 290 296 298 299 298 293 290 288 290 293 296 298 300 301 303 304
267 269 272 273 273 273 269 263 259 254 247 241 236 236 237 237 236 233 232 234 237 240 245 249 255 262 266 272 278 283 291 295 295 297 297 299 301 301 301 301 301 301 299 298 298 297 293 286 286 294 302 306 307 307 300 285 275 272 280 289 290 285 278 270 261 270 275 261 253 230 255 280 287 296 299 298 295 290 289 290 292 294 296 298 299 301 302 303
268 271 274 274 273 271 266 263 260 253 245 240 236 236 238 240 239 238 237 237 241 245 250 255 260 265 270 275 281 287 291 290 290 294 296 298 301 301 299 299 299 297 296 296 296 296 290 282 283 293 307 313 313 314 310 304 299 292 291 293 290 282 278 273 267 266 268 267 262 218 242 278 286 293 295 296 295 293 294 294 296 297 298 299 300 301 302 302
272 274 276 275 274 270 266 264 259 251 245 240 239 239 241 243 242 240 240 241 245 250 254 259 264 269 274 279 283 287 288 286 287 291 294 297 299 298 296 296 295 293 293 293 294 293 288 281 278 275 272 286 295 298 301 304 303 300 300 300 297 293 284 275 270 257 254 269 267 237 251 282 294 295 293 296 296 295 297 296 296 298 298 299 299 300 302 303
273 275 276 276 274 270 266 261 254 249 246 244 247 245 243 245 245 242 244 246 248 253 258 263 267 271 277 280 284 287 288 288 287 288 293 297 296 294 293 293 292 292 292 292 292 292 286 283 283 277 265 267 283 292 295 296 294 295 299 299 295 293 286 279 266 253 259 271 271 268 271 284 297 300 297 297 296 296 297 296 297 297 298 299 300 301 303 303
272 273 273 273 274 272 267 261 253 248 246 248 252 250 247 248 247 246 248 250 253 257 261 264 268 274 279 282 286 288 290 291 289 289 293 295 293 293 293 294 294 294 294 294 292 289 283 284 289 286 281 285 294 296 293 290 290 293 296 297 296 292 284 276 266 266 275 271 271 284 288 286 293 299 296 295 297 297 297 297 297 298 300 301 302 303 304 305
273 272 272 271 269 270 271 267 257 251 250 253 256 256 253 250 249 250 252 254 257 260 263 267 272 277 280 284 287 288 290 292 291 290 291 291 292 293 294 294 295 294 295 293 290 286 282 284 290 290 289 293 296 297 296 293 292 293 294 296 300 296 286 279 275 279 280 266 269 291 296 289 292 296 294 294 297 297 297 298 298 299 301 302 302 303 305 307
271 271 272 271 268 268 269 267 261 256 256 261 262 260 258 253 252 255 256 258 261 262 266 273 278 279 281 285 285 286 292 294 291 288 289 290 292 293 294 295 295 294 294 290 287 284 280 282 289 290 291 295 296 298 299 296 294 295 296 300 304 298 286 280 283 289 280 271 278 290 289 288 294 295 293 295 296 296 297 297 297 299 301 301 303 305 308 310
269 270 272 273 270 268 267 265 263 260 262 266 267 265 261 257 254 256 257 259 264 267 271 277 279 280 284 286 285 289 296 292 285 286 289 291 293 294 294 295 295 294 293 289 286 283 278 280 287 290 292 296 300 302 301 300 299 299 301 304 301 291 278 280 291 294 284 281 287 285 282 289 297 295 294 296 296 296 297 297 298 300 302 304 307 310 312 314
268 268 271 274 272 269 268 267 264 262 264 269 270 266 261 257 254 256 258 260 265 270 275 277 278 280 284 285 287 292 293 286 285 288 291 291 294 294 294 294 295 293 292 290 287 284 280 279 285 290 291 294 300 303 302 302 301 299 301 302 291 275 284 295 297 296 290 287 287 283 283 293 298 296 296 298 299 299 299 298 300 302 305 309 313 315 317 317
266 266 268 272 273 270 268 267 264 263 266 268 266 261 257 256 254 255 259 262 266 271 274 276 279 282 284 286 290 292 288 286 289 291 291 292 294 294 293 292 293 291 289 288 286 284 282 280 284 287 286 291 297 299 300 306 304 299 301 300 285 289 298 300 298 295 291 287 286 287 291 296 298 299 301 303 304 303 301 301 304 308 311 314 316 317 318 316
Height
3133 3134 3136 3137 3138 3140 3142 3142 3143 3144 3145 3146 3147 3148 3148 3149 3149 3149 3149 3150 3150 3150 3150 3150 3150 3150 3150 3150 3150 3150 3150 3149 3148 3147 3147 3146 3146 3145 3144 3144 3143 3143 3142 3142 3142 3141 3140 3140 3140 3140 3139 3139 3139 3139 3139 3139 3139 3138 3138 3138 3137 3138 3138 3138 3138 3137 3137 3136 3136 3136 3136 3136 3135 3135 3135 3134 3134 3134 3133 3133 3132 3132 3131 3131 3129 3128 3128 3127
3134 3135 3136 3138 3139 3140 3142 3143 3144 3145 3145 3147 3148 3148 3149 3149 3149 3149 3149 3149 3149 3149 3149 3150 3150 3150 3149 3149 3149 3149 3148 3148 3146 3146 3145 3145 3144 3144 3143 3143 3142 3142 3141 3141 3141 3140 3139 3139 3139 3139 3139 3138 3138 3138 3138 3138 3138 3138 3137 3137 3137 3137 3137 3137 3137 3136 3136 3136 3136 3135 3135 3135 3134 3134 3133 3133 3132 3132 3131 3131 3130 3129 3129 3128 3127 3126 3125 3124
3135 3136 3137 3138 3140 3141 3143 3144 3144 3145 3146 3147 3148 3148 3149 3149 3149 3149 3149 3149 3149 3149 3149 3149 3149 3148 3148 3148 3148 3148 3147 3146 3145 3145 3144 3144 3143 3143 3143 3142 3142 3141 3141 3140 3140 3139 3139 3139 3139 3138 3138 3138 3137 3137 3138 3138 3137 3137 3136 3136 3137 3137 3136 3136 3136 3135 3135 3135 3134 3134 3134 3133 3133 3132 3131 3130 3130 3129 3129 3129 3128 3127 3126 3125 3124 3123 3122 3122
3136 3137 3138 3139 3141 3142 3143 3144 3145 3146 3147 3148 3148 3148 3148 3148 3148 3148 3148 3148 3148 3148 3148 3148 3148 3147 3147 3147 3147 3146 3146 3145 3144 3144 3143 3143 3143 3142 3142 3142 3141 3140 3140 3140 3139 3139 3138 3138 3138 3138 3137 3137 3137 3137 3137 3137 3136 3136 3135 3135 3136 3136 3135 3135 3135 3134 3134 3133 3133 3133 3132 3132 3131 3130 3129 3128 3127 3126 3127 3127 3125 3124 3124 3122 3121 3120 3119 3119
3138 3139 3140 3141 3142 3143 3144 3145 3146 3146 3147 3147 3147 3148 3148 3148 3148 3148 3147 3147 3147 3147 3147 3147 3147 3147 3146 3146 3146 3145 3145 3144 3144 3143 3143 3143 3142 3142 3141 3141 3140 3140 3139 3139 3138 3138 3137 3137 3137 3137 3137 3136 3136 3136 3136 3136 3135 3135 3135 3135 3135 3135 3134 3134 3134 3133 3132 3132 3131 3131 3130 3129 3129 3128 3127 3126 3124 3124 3124 3124 3122 3122 3121 3120 3119 3118 3117 3116
3139 3140 3142 3143 3144 3144 3145 3145 3146 3146 3146 3147 3147 3147 3147 3147 3147 3147 3147 3147 3147 3146 3146 3146 3146 3146 3146 3146 3145 3144 3144 3144 3143 3143 3143 3142 3142 3141 3141 3140 3139 3139 3138 3138 3137 3137 3136 3136 3136 3136 3136 3135 3135 3135 3135 3135 3134 3134 3134 3134 3134 3134 3133 3133 3132 3131 3131 3130 3129 3129 3128 3127 3126 3125 3123 3122 3122 3122 3121 3121 3120 3119 3118 3117 3116 3115 3115 3114
3141 3141 3143 3145 3145 3145 3145 3146 3146 3146 3146 3146 3146 3146 3147 3147 3147 3147 3146 3146 3146 3146 3146 3146 3146 3146 3145 3145 3144 3144 3143 3143 3142 3142 3142 3141 3141 3140 3140 3139 3138 3138 3137 3137 3136 3136 3135 3135 3135 3135 3135 3134 3134 3134 3134 3134 3134 3133 3133 3133 3133 3132 3132 3131 3130 3130 3129 3128 3128 3127 3126 3125 3123 3122 3120 3119 3120 3119 3118 3117 3116 3115 3115 3114 3113 3113 3112 3111
3143 3143 3144 3145 3146 3146 3146 3145 3145 3145 3145 3146 3146 3146 3146 3146 3146 3146 3146 3146 3146 3146 3146 3146 3146 3145 3145 3145 3144 3143 3143 3142 3142 3141 3141 3140 3140 3139 3139 3138 3137 3137 3136 3136 3135 3135 3134 3134 3134 3133 3133 3133 3133 3133 3133 3133 3133 3132 3132 3132 3131 3131 3130 3130 3129 3128 3127 3126 3126 3125 3124 3123 3121 3119 3117 3117 3118 3116 3115 3114 3113 3112 3111 3111 3110 3109 3109 3108
3143 3144 3145 3145 3146 3146 3145 3145 3145 3145 3145 3145 3145 3145 3145 3145 3145 3145 3145 3145 3146 3145 3145 3145 3145 3145 3145 3144 3143 3143 3142 3142 3141 3141 3140 3140 3139 3138 3138 3137 3136 3136 3135 3135 3134 3134 3134 3133 3133 3133 3133 3132 3133 3132 3132 3132 3132 3131 3131 3130 3130 3129 3129 3128 3128 3127 3126 3125 3124 3122 3121 3120 3119 3116 3115 3116 3115 3113 3113 3112 3110 3109 3108 3108 3107 3106 3106 3105
3144 3144 3145 3145 3145 3145 3145 3145 3144 3144 3144 3144 3144 3145 3145 3145 3145 3145 3145 3145 3145 3145 3145 3145 3145 3144 3144 3143 3143 3142 3142 3141 3141 3140 3139 3139 3138 3137 3137 3136 3135 3135 3134 3134 3133 3133 3133 3132 3132 3132 3132 3132 3131 3131 3131 3131 3131 3130 3129 3129 3129 3128 3127 3127 3126 3125 3124 3123 3121 3120 3119 3118 3116 3113 3113 3114 3113 3111 3110 3109 3108 3107 3106 3105 3104 3103 3103 3102
3144 3145 3145 3145 3145 3145 3144 3144 3144 3144 3143 3143 3144 3144 3145 3145 3145 3145 3145 3145 3145 3144 3144 3144 3144 3144 3143 3143 3142 3142 3141 3141 3140 3139 3139 3138 3137 3136 3136 3135 3134 3134 3133 3133 3133 3132 3132 3131 3131 3131 3131 3131 3130 3130 3130 3130 3129 3129 3128 3128 3127 3127 3126 3126 3125 3124 3123 3122 3120 3118 3117 3116 3114 3112 3112 3111 3110 3109 3107 3106 3105 3104 3103 3102 3101 3100 3100 3099
3144 3144 3145 3145 3145 3144 3144 3144 3143 3143 3143 3143 3144 3144 3145 3145 3145 3144 3144 3144 3144 3144 3144 3144 3144 3143 3143 3142 3142 3142 3141 3140 3139 3139 3138 3137 3136 3135 3135 3134 3134 3133 3133 3132 3132 3132 3131 3131 3130 3130 3130 3130 3130 3129 3129 3128 3128 3128 3127 3126 3126 3126 3125 3124 3123 3123 3121 3121 3119 3117 3114 3113 3112 3111 3110 3109 3107 3106 3105 3103 3103 3101 3100 3099 3098 3097 3097 3096
3144 3144 3144 3145 3145 3144 3144 3144 3144 3143 3144 3144 3144 3145 3145 3144 3144 3144 3144 3144 3144 3144 3144 3143 3143 3143 3142 3142 3141 3141 3140 3140 3139 3138 3137 3136 3136 3135 3134 3134 3133 3133 3132 3132 3132 3131 3131 3130 3130 3130 3130 3129 3129 3128 3128 3127 3127 3126 3126 3125 3125 3125 3124 3123 3122 3122 3121 3119 3118 3116 3113 3109 3110 3110 3107 3106 3104 3103 3102 3100 3099 3099 3098 3096 3095 3095 3094 3093
3144 3145 3145 3145 3145 3145 3144 3144 3144 3144 3144 3144 3145 3145 3144 3144 3144 3143 3143 3144 3144 3144 3143 3143 3142 3142 3142 3141 3141 3140 3140 3139 3138 3137 3137 3136 3136 3135 3134 3134 3133 3132 3132 3131 3131 3130 3130 3130 3130 3129 3129 3128 3128 3128 3127 3127 3126 3126 3125 3124 3124 3123 3123 3122 3121 3120 3119 3118 3116 3116 3112 3107 3107 3107 3105 3104 3102 3100 3099 3098 3097 3096 3095 3094 3093 3092 3091 3091
3145 3145 3145 3145 3145 3145 3144 3144 3144 3144 3144 3144 3144 3144 3144 3144 3143 3143 3143 3143 3143 3143 3143 3142 3142 3142 3141 3141 3141 3140 3139 3138 3138 3137 3136 3136 3135 3134 3134 3133 3132 3132 3131 3131 3130 3130 3130 3129 3129 3129 3128 3128 3127 3127 3127 3126 3126 3125 3124 3124 3123 3122 3122 3121 3120 3118 3117 3116 3114 3114 3110 3105 3106 3106 3104 3102 3100 3098 3097 3096 3095 3094 3093 3091 3090 3090 3089 3089
3145 3145 3145 3145 3144 3144 3144 3144 3144 3144 3144 3144 3144 3144 3144 3144 3143 3143 3143 3143 3143 3142 3142 3142 3141 3141 3141 3141 3140 3139 3139 3138 3137 3136 3136 3135 3135 3134 3133 3132 3132 3131 3131 3130 3130 3129 3129 3129 3129 3128 3128 3127 3127 3126 3126 3126 3125 3124 3124 3123 3122 3121 3120 3120 3119 3117 3116 3114 3113 3113 3108 3104 3104 3104 3103 3101 3099 3096 3095 3095 3094 3092 3091 3090 3089 3088 3087 3087
3145 3145 3145 3145 3144 3144 3144 3144 3144 3144 3144 3144 3144 3144 3144 3144 3143 3143 3143 3143 3142 3142 3142 3142 3141 3141 3141 3140 3140 3139 3138 3138 3137 3136 3136 3135 3134 3134 3133 3132 3131 3131 3130 3130 3130 3129 3129 3129 3128 3128 3128 3127 3127 3126 3125 3125 3124 3124 3123 3122 3121 3121 3120 3119 3118 3117 3115 3114 3112 3112 3107 3103 3103 3102 3101 3098 3096 3094 3093 3093 3093 3091 3090 3089 3088 3087 3086 3085
3145 3145 3145 3145 3144 3144 3144 3144 3144 3144 3144 3144 3144 3144 3144 3143 3143 3143 3143 3143 3142 3142 3142 3142 3141 3141 3140 3140 3139 3139 3138 3137 3137 3136 3136 3135 3134 3134 3133 3132 3131 3131 3130 3130 3130 3129 3129 3129 3128 3128 3127 3127 3126 3126 3125 3125 3124 3123 3123 3122 3121 3120 3120 3118 3117 3116 3115 3113 3111 3110 3105 3102 3101 3100 3098 3096 3093 3093 3092 3092 3092 3091 3090 3088 3087 3086 3085 3084
3146 3146 3145 3145 3145 3145 3145 3144 3144 3144 3144 3144 3144 3144 3144 3144 3143 3143 3143 3143 3142 3142 3142 3141 3141 3141 3140 3140 3139 3138 3138 3137 3137 3136 3135 3135 3134 3134 3133 3132 3132 3131 3131 3130 3130 3129 3129 3129 3128 3128 3127 3126 3126 3125 3125 3125 3124 3124 3123 3122 3121 3120 3119 3118 3116 3115 3114 3111 3109 3108 3104 3100 3100 3098 3096 3094 3093 3092 3091 3091 3091 3090 3088 3087 3086 3085 3084 3083
3146 3146 3146 3146 3146 3145 3145 3145 3144 3144 3144 3144 3144 3144 3144 3144 3144 3143 3143 3143 3142 3142 3142 3141 3141 3141 3140 3140 3139 3138 3138 3137 3137 3136 3135 3135 3134 3134 3133 3132 3132 3131 3130 3130 3130 3129 3129 3129 3128 3128 3127 3126 3126 3125 3125 3125 3124 3123 3123 3122 3121 3119 3118 3117 3115 3114 3112 3110 3107 3106 3102 3100 3099 3097 3095 3094 3092 3092 3091 3090 3090 3088 3087 3086 3085 3084 3083 3083
3147 3147 3146 3146 3146 3146 3145 3145 3145 3145 3145 3144 3144 3144 3144 3144 3144 3144 3143 3143 3143 3142 3141 3141 3141 3140 3140 3140 3139 3138 3138 3137 3137 3136 3136 3135 3135 3134 3133 3133 3132 3131 3131 3130 3130 3129 3129 3129 3128 3128 3127 3127 3126 3125 3125 3124 3124 3123 3122 3121 3120 3119 3117 3115 3114 3112 3111 3109 3106 3104 3101 3099 3098 3097 3095 3094 3092 3091 3090 3090 3088 3087 3086 3084 3083 3082 3082 3082
3147 3147 3147 3147 3146 3146 3146 3145 3145 3145 3144 3144 3144 3144 3144 3144 3144 3144 3143 3143 3143 3142 3142 3141 3141 3140 3140 3140 3139 3138 3138 3137 3137 3136 3136 3135 3135 3134 3133 3133 3133 3132 3131 3131 3130 3130 3129 3129 3128 3128 3127 3127 3126 3125 3125 3124 3123 3122 3121 3120 3119 3118 3116 3114 3113 3111 3110 3108 3106 3104 3101 3098 3098 3096 3095 3093 3092 3091 3090 3088 3087 3086 3084 3083 3082 3081 3081 3081
3147 3147 3147 3147 3147 3147 3146 3146 3145 3144 3144 3143 3143 3144 3144 3144 3144 3143 3143 3143 3143 3142 3142 3141 3141 3141 3140 3139 3139 3139 3138 3138 3137 3137 3136 3136 3135 3135 3134 3134 3133 3132 3132 3131 3130 3130 3129 3129 3129 3128 3128 3127 3126 3125 3124 3124 3123 3121 3120 3119 3118 3117 3115 3113 3112 3110 3109 3107 3105 3103 3101 3098 3097 3096 3094 3093 3091 3090 3089 3087 3086 3085 3083 3082 3081 3080 3080 3080
3147 3147 3147 3147 3147 3147 3146 3145 3145 3144 3143 3143 3144 3144 3144 3144 3144 3144 3144 3143 3143 3143 3142 3141 3141 3140 3140 3139 3139 3139 3138 3138 3138 3137 3137 3136 3136 3135 3134 3134 3133 3132 3132 3131 3131 3130 3130 3129 3129 3128 3127 3127 3126 3125 3124 3123 3122 3121 3120 3119 3117 3116 3115 3113 3111 3110 3108 3106 3104 3102 3099 3096 3095 3095 3093 3092 3091 3089 3088 3087 3086 3084 3083 3081 3080 3079 3079 3078
3147 3147 3147 3148 3147 3146 3146 3145 3144 3143 3143 3143 3144 3144 3144 3144 3144 3144 3144 3143 3143 3143 3142 3141 3141 3140 3140 3140 3139 3139 3139 3138 3138 3137 3137 3136 3136 3135 3134 3134 3133 3133 3132 3132 3131 3131 3130 3129 3129 3128 3127 3126 3125 3124 3123 3123 3122 3120 3119 3118 3117 3115 3114 3112 3110 3109 3106 3105 3103 3101 3100 3095 3093 3094 3093 3091 3090 3089 3088 3086 3085 3083 3081 3080 3079 3078 3077 3077
3147 3147 3147 3147 3147 3146 3145 3145 3144 3143 3143 3144 3144 3144 3144 3144 3144 3144 3144 3143 3143 3142 3141 3141 3140 3140 3140 3140 3139 3139 3139 3138 3138 3137 3137 3136 3136 3135 3135 3134 3134 3133 3133 3132 3131 3131 3130 3129 3128 3128 3127 3126 3125 3124 3123 3122 3121 3120 3118 3117 3116 3114 3112 3111 3109 3108 3106 3104 3102 3102 3102 3096 3090 3091 3092 3090 3089 3088 3087 3085 3084 3082 3080 3079 3078 3077 3076 3075
3146 3146 3146 3146 3146 3146 3145 3144 3144 3143 3143 3144 3144 3143 3143 3143 3143 3143 3143 3143 3142 3142 3141 3141 3140 3140 3140 3140 3139 3139 3138 3138 3138 3137 3137 3136 3136 3135 3135 3135 3134 3133 3133 3132 3131 3130 3130 3129 3128 3127 3127 3126 3125 3124 3123 3121 3120 3119 3117 3116 3115 3113 3111 3109 3108 3107 3105 3103 3102 3100 3101 3098 3091 3089 3090 3089 3088 3086 3085 3084 3082 3081 3080 3078 3077 3075 3074 3074
3146 3146 3146 3146 3145 3145 3144 3144 3143 3143 3143 3143 3143 3143 3143 3143 3143 3143 3143 3143 3141 3141 3141 3141 3140 3140 3140 3140 3140 3139 3139 3138 3138 3137 3137 3137 3136 3136 3135 3135 3134 3134 3133 3132 3131 3130 3130 3129 3128 3127 3126 3125 3124 3123 3122 3121 3119 3118 3116 3115 3113 3112 3110 3107 3106 3105 3103 3102 3100 3098 3098 3098 3091 3087 3088 3088 3086 3084 3083 3082 3081 3080 3078 3077 3076 3074 3073 3072
3145 3145 3145 3145 3145 3144 3144 3144 3143 3143 3143 3143 3143 3143 3143 3142 3142 3142 3143 3141 3140 3140 3140 3140 3140 3140 3140 3140 3139 3139 3139 3138 3138 3137 3137 3137 3136 3136 3136 3135 3134 3134 3133 3132 3131 3130 3129 3128 3127 3127 3126 3124 3123 3122 3121 3120 3118 3117 3115 3113 3112 3110 3108 3106 3104 3102 3102 3101 3098 3097 3097 3097 3090 3085 3087 3086 3083 3082 3081 3080 3080 3078 3077 3075 3074 3073 3071 3070
3145 3144 3144 3144 3144 3144 3144 3143 3143 3143 3143 3143 3142 3142 3142 3142 3142 3142 3142 3140 3139 3140 3140 3140 3140 3140 3140 3140 3139 3139 3138 3138 3138 3137 3137 3137 3136 3136 3136 3135 3134 3133 3133 3132 3131 3129 3128 3128 3127 3126 3125 3123 3122 3121 3120 3119 3117 3116 3114 3112 3110 3108 3106 3104 3102 3101 3102 3099 3096 3095 3096 3096 3091 3084 3085 3086 3083 3080 3079 3078 3078 3077 3075 3074 3072 3071 3069 3067
3144 3144 3144 3144 3144 3144 3143 3143 3143 3142 3142 3142 3142 3142 3142 3141 3141 3141 3140 3139 3138 3139 3139 3139 3139 3140 3139 3139 3139 3139 3138 3138 3138 3137 3137 3136 3136 3136 3135 3134 3134 3133 3132 3131 3130 3129 3128 3127 3126 3125 3124 3122 3121 3120 3119 3118 3116 3115 3113 3111 3109 3106 3104 3102 3101 3101 3101 3097 3095 3095 3094 3096 3092 3084 3084 3085 3083 3080 3077 3076 3075 3074 3073 3072 3070 3068 3066 3065
3144 3144 3144 3144 3144 3143 3143 3142 3142 3142 3141 3141 3141 3141 3141 3141 3140 3139 3138 3138 3138 3138 3139 3139 3139 3139 3139 3139 3139 3138 3138 3138 3137 3137 3137 3136 3136 3135 3134 3134 3133 3132 3131 3130 3129 3127 3126 3126 3124 3124 3122 3121 3120 3119 3118 3117 3115 3114 3112 3111 3109 3106 3104 3102 3100 3100 3099 3095 3094 3094 3094 3093 3088 3083 3083 3083 3081 3078 3076 3074 3073 3072 3070 3069 3068 3066 3064 3062
3143 3143 3143 3143 3143 3143 3142 3142 3141 3141 3141 3141 3141 3140 3140 3140 3139 3137 3137 3137 3137 3137 3138 3139 3139 3139 3139 3139 3138 3138 3138 3137 3137 3137 3136 3135 3135 3134 3134 3133 3132 3132 3130 3129 3128 3126 3125 3124 3123 3122 3121 3120 3119 3117 3116 3115 3114 3112 3111 3110 3110 3109 3108 3104 3101 3099 3096 3094 3093 3094 3094 3090 3083 3082 3083 3081 3079 3076 3074 3073 3071 3070 3068 3067 3066 3064 3062 3061
3143 3143 3143 3143 3142 3142 3141 3141 3141 3140 3140 3140 3140 3140 3140 3139 3137 3136 3137 3137 3137 3137 3138 3138 3138 3138 3138 3138 3138 3138 3137 3137 3137 3136 3135 3135 3134 3133 3133 3132 3131 3131 3130 3129 3127 3126 3124 3122 3121 3121 3120 3118 3117 3116 3114 3113 3112 3110 3109 3110 3109 3109 3109 3106 3102 3098 3094 3093 3093 3093 3092 3085 3080 3081 3082 3079 3077 3075 3072 3071 3070 3068 3067 3065 3064 3063 3061 3059
3142 3142 3142 3142 3142 3141 3141 3140 3140 3140 3140 3140 3139 3139 3138 3137 3136 3136 3137 3137 3137 3137 3137 3138 3138 3138 3138 3138 3137 3137 3137 3136 3136 3135 3135 3134 3133 3132 3132 3131 3130 3129 3129 3128 3127 3126 3124 3122 3120 3120 3118 3117 3116 3114 3113 3112 3110 3109 3108 3108 3107 3107 3107 3105 3101 3098 3096 3094 3091 3088 3084 3079 3078 3081 3080 3077 3074 3073 3071 3070 3069 3067 3065 3064 3062 3059 3058 3056
3141 3141 3141 3141 3141 3140 3140 3139 3139 3139 3139 3139 3138 3137 3137 3137 3136 3136 3136 3136 3136 3137 3137 3137 3137 3137 3137 3137 3137 3136 3136 3136 3135 3134 3134 3133 3132 3131 3130 3130 3129 3128 3127 3127 3126 3125 3123 3120 3119 3118 3117 3116 3114 3112 3112 3110 3109 3107 3106 3106 3105 3104 3104 3103 3100 3097 3098 3095 3087 3082 3078 3075 3076 3078 3076 3075 3072 3070 3070 3068 3067 3065 3063 3061 3058 3056 3054 3052
3140 3140 3140 3140 3140 3139 3139 3138 3138 3138 3138 3138 3137 3136 3136 3136 3136 3136 3136 3136 3136 3136 3136 3136 3136 3137 3136 3136 3136 3136 3135 3135 3134 3133 3133 3131 3130 3129 3129 3128 3128 3127 3126 3125 3124 3123 3121 3118 3116 3116 3115 3114 3113 3111 3109 3109 3107 3106 3105 3104 3103 3102 3101 3101 3100 3097 3098 3095 3085 3079 3076 3073 3074 3075 3073 3072 3070 3069 3068 3066 3065 3062 3059 3057 3055 3053 3050 3048
3139 3139 3139 3139 3139 3138 3138 3137 3137 3137 3137 3136 3136 3135 3135 3135 3135 3135 3135 3135 3136 3136 3136 3136 3135 3136 3135 3135 3135 3135 3135 3134 3133 3133 3131 3130 3129 3128 3128 3127 3126 3125 3124 3123 3122 3121 3119 3115 3112 3113 3112 3111 3111 3109 3107 3106 3105 3104 3103 3102 3102 3101 3099 3100 3099 3096 3096 3094 3086 3078 3074 3071 3072 3072 3070 3068 3068 3066 3065 3063 3061 3058 3055 3053 3051 3049 3047 3045
3138 3138 3138 3138 3138 3137 3137 3136 3136 3136 3135 3135 3135 3135 3134 3134 3134 3134 3134 3135 3135 3135 3135 3135 3134 3135 3134 3134 3134 3134 3134 3133 3132 3132 3130 3129 3127 3127 3126 3125 3125 3124 3122 3122 3120 3118 3118 3114 3110 3108 3109 3109 3108 3107 3104 3103 3102 3102 3101 3100 3100 3099 3098 3097 3097 3095 3094 3093 3087 3079 3072 3068 3069 3069 3067 3066 3064 3062 3060 3058 3056 3054 3051 3049 3047 3045 3043 3041
3137 3137 3137 3137 3137 3136 3136 3135 3135 3134 3134 3133 3134 3133 3133 3133 3133 3133 3134 3134 3134 3134 3134 3134 3134 3134 3133 3133 3133 3133 3132 3132 3131 3130 3129 3128 3126 3125 3125 3124 3123 3122 3120 3119 3118 3116 3115 3113 3109 3105 3106 3106 3105 3105 3102 3100 3099 3099 3098 3098 3097 3097 3096 3095 3093 3092 3091 3091 3089 3084 3073 3065 3066 3067 3065 3064 3061 3058 3056 3054 3052 3051 3048 3046 3044 3041 3039 3037
3136 3136 3136 3136 3136 3135 3135 3134 3133 3133 3132 3132 3132 3132 3132 3132 3132 3132 3133 3133 3133 3133 3133 3133 3133 3132 3132 3132 3132 3131 3131 3130 3130 3129 3128 3127 3126 3124 3123 3122 3121 3120 3118 3117 3116 3115 3113 3111 3107 3103 3102 3102 3102 3102 3099 3097 3097 3096 3095 3095 3095 3094 3094 3094 3091 3087 3088 3087 3085 3084 3074 3062 3063 3066 3063 3061 3059 3056 3054 3052 3049 3048 3046 3043 3041 3038 3036 3033
3135 3135 3135 3135 3134 3134 3133 3132 3132 3131 3131 3131 3131 3131 3131 3131 3131 3131 3131 3132 3132 3132 3132 3132 3131 3131 3131 3131 3130 3130 3130 3128 3127 3127 3126 3125 3124 3123 3121 3120 3119 3118 3116 3114 3113 3112 3111 3108 3104 3100 3098 3099 3099 3098 3096 3094 3094 3094 3094 3092 3092 3092 3091 3092 3089 3085 3084 3083 3080 3082 3074 3059 3059 3063 3060 3058 3057 3053 3051 3049 3047 3045 3043 3041 3038 3035 3033 3030
3134 3134 3133 3133 3133 3132 3132 3131 3130 3130 3130 3130 3130 3130 3130 3130 3130 3130 3130 3130 3131 3131 3131 3130 3130 3130 3130 3129 3129 3129 3128 3127 3125 3124 3124 3123 3122 3121 3119 3118 3117 3115 3114 3112 3110 3110 3109 3106 3102 3097 3095 3095 3095 3094 3093 3092 3092 3092 3091 3090 3090 3089 3088 3088 3086 3083 3082 3078 3076 3080 3073 3057 3055 3060 3057 3055 3053 3051 3049 3047 3044 3043 3040 3037 3034 3031 3029 3026
3133 3132 3132 3132 3131 3131 3130 3129 3129 3129 3129 3129 3129 3128 3128 3128 3128 3129 3129 3129 3129 3129 3129 3129 3129 3129 3128 3128 3127 3127 3127 3126 3124 3122 3122 3120 3119 3118 3117 3116 3114 3113 3112 3110 3108 3107 3106 3104 3102 3098 3094 3093 3091 3090 3090 3089 3089 3088 3087 3087 3086 3085 3086 3084 3083 3082 3079 3072 3072 3076 3067 3054 3054 3057 3054 3053 3051 3048 3047 3043 3040 3038 3035 3033 3030 3026 3024 3021
3132 3131 3131 3130 3130 3129 3129 3128 3128 3128 3128 3128 3127 3127 3127 3127 3127 3127 3128 3128 3128 3128 3128 3128 3127 3127 3127 3126 3126 3125 3125 3124 3122 3120 3119 3118 3117 3116 3114 3113 3112 3110 3109 3108 3106 3105 3103 3100 3099 3098 3097 3095 3092 3089 3088 3086 3086 3084 3083 3083 3082 3081 3082 3080 3080 3080 3075 3068 3067 3067 3059 3051 3053 3054 3051 3049 3047 3044 3043 3040 3036 3034 3031 3028 3025 3022 3019 3016
3131 3130 3130 3129 3129 3128 3128 3127 3127 3127 3127 3127 3126 3126 3126 3126 3126 3126 3126 3126 3126 3126 3126 3126 3126 3125 3125 3124 3124 3123 3122 3122 3120 3118 3116 3116 3114 3113 3111 3110 3109 3108 3106 3105 3103 3102 3099 3095 3095 3094 3093 3092 3090 3088 3087 3085 3083 3081 3080 3079 3079 3078 3078 3077 3076 3074 3070 3066 3061 3056 3053 3050 3049 3050 3048 3044 3042 3039 3037 3035 3032 3030 3027 3024 3021 3017 3014 3011
3130 3129 3129 3128 3128 3127 3126 3126 3126 3126 3126 3126 3125 3125 3125 3125 3125 3124 3125 3125 3125 3125 3124 3124 3124 3124 3123 3123 3122 3121 3120 3119 3117 3115 3114 3113 3111 3110 3108 3107 3106 3104 3103 3102 3100 3099 3095 3091 3091 3089 3087 3086 3086 3084 3084 3082 3080 3077 3076 3075 3075 3075 3074 3072 3071 3067 3066 3065 3056 3049 3052 3050 3045 3045 3043 3039 3037 3034 3031 3029 3026 3024 3022 3019 3015 3012 3008 3005
3129 3128 3128 3127 3127 3126 3126 3126 3125 3125 3125 3125 3124 3124 3124 3124 3123 3123 3123 3123 3123 3123 3123 3122 3122 3122 3121 3120 3119 3118 3117 3116 3114 3112 3111 3110 3108 3107 3105 3104 3103 3101 3100 3098 3097 3095 3092 3088 3086 3085 3083 3083 3082 3080 3079 3078 3075 3073 3072 3071 3071 3071 3068 3066 3064 3062 3063 3060 3051 3047 3049 3046 3042 3042 3039 3035 3033 3030 3027 3025 3021 3019 3017 3013 3009 3006 3003 2999
3128 3127 3127 3126 3126 3125 3125 3125 3124 3124 3124 3123 3123 3122 3122 3122 3122 3122 3122 3121 3121 3121 3121 3120 3121 3120 3119 3118 3117 3116 3115 3114 3111 3109 3108 3107 3105 3104 3102 3100 3099 3098 3096 3095 3093 3092 3089 3085 3083 3082 3079 3078 3079 3077 3075 3074 3071 3069 3068 3067 3066 3065 3063 3061 3059 3058 3057 3053 3048 3046 3044 3040 3039 3038 3034 3032 3030 3026 3023 3021 3018 3015 3013 3008 3005 3001 2997 2993
3127 3126 3126 3125 3125 3124 3124 3124 3123 3123 3123 3122 3121 3121 3121 3121 3121 3120 3120 3120 3120 3120 3119 3119 3118 3118 3116 3116 3114 3113 3113 3111 3109 3107 3105 3103 3102 3100 3099 3097 3095 3094 3092 3091 3089 3089 3087 3083 3081 3079 3075 3073 3074 3073 3071 3070 3068 3064 3062 3062 3061 3059 3058 3057 3055 3054 3052 3048 3045 3044 3039 3035 3036 3034 3031 3029 3026 3023 3020 3017 3013 3011 3008 3003 2999 2995 2990 2985
3125 3125 3124 3124 3123 3123 3123 3122 3122 3122 3121 3121 3120 3120 3120 3119 3119 3119 3118 3118 3118 3118 3117 3117 3116 3115 3114 3113 3111 3111 3110 3108 3106 3104 3102 3101 3099 3097 3095 3093 3092 3090 3088 3087 3085 3084 3083 3080 3078 3078 3074 3069 3070 3070 3068 3066 3064 3060 3057 3057 3056 3055 3054 3053 3050 3049 3047 3044 3042 3040 3035 3032 3032 3030 3027 3025 3022 3019 3015 3011 3008 3006 3003 2998 2992 2987 2982 2977
3124 3123 3123 3122 3122 3121 3121 3121 3121 3120 3120 3120 3119 3118 3118 3118 3117 3117 3117 3116 3116 3116 3115 3114 3113 3112 3111 3110 3109 3108 3107 3105 3103 3101 3099 3098 3096 3094 3092 3090 3088 3086 3085 3084 3082 3080 3079 3077 3076 3076 3073 3067 3067 3067 3065 3063 3060 3055 3053 3053 3053 3052 3051 3048 3045 3043 3042 3040 3038 3034 3031 3029 3028 3025 3022 3019 3016 3013 3009 3006 3003 2999 2995 2991 2985 2980 2976 2971